ゲーレルス第3彗星

82P/Gehrels 3 (2018)

English version
Home page
Updated on July 8, 2020

---------------------------------------------------------------------

・ プロフィール

・ 軌道要素

Epoch 2018 June 11.0 TT = JDT 2458280.5
T 2018 June 28.61410 TT                                 Rudenko
q   3.6342298            (2000.0)            P               Q
n   0.11693149     Peri.  227.19715     -0.28403140     -0.95866546
a   4.1417293      Node   239.31111     +0.88534217     -0.25544579
e   0.1225332      Incl.    1.12823     +0.36809701     -0.12533152
P   8.43
From 114 observations 1975 Oct. 27-2020 Apr. 26, mean residual 0".7.

・ 光度変化

        m1 = 6.5 + 5 logΔ + 20.0 log r

---------------------------------------------------------------------

軌道要素はM.P.E.C. 2020-H235に掲載されたものです。
光度グラフはComet for Windowsで作成したものです。

---------------------------------------------------------------------

Copyright(C) Seiichi Yoshida (comet@aerith.net). All rights reserved.